Virtual Norwegian is not affiliated with Norwegian Air Shuttle in any way.
If you are looking for the real "Norwegian", or you wish to book Norwegian flights, please visit Norwegian.com


We use cookies to ensure you get the best experience on our website.   ACCEPT

LPPS - PXO - Porto Santo (Porto Santo)

General Info Alternate Airport
ICAO: LPPS Elevation: 341 ft ICAO:
IATA: PXO Country: Portugal IATA:
City: Porto Santo Charts: Log in to view charts City:
Name: Porto Santo Hub: No Name
General Info
ICAO: LPPS
IATA: PXO
City: Porto Santo
Name: Porto Santo
Elevation: 341 ft
Country: Portugal
Charts: Log in to view charts
Hub: No
 
Alternate Airport
ICAO:
IATA:
City:
Name:

Weather
221630Z 03006KT 350V060 9999 FEW015 BKN030 16/05 Q1028
Weather
221630Z 03006KT 350V060 9999 FEW015 BKN030 16/05 Q1028

Runway Info
18
Length ILS/LOC Heading
3000 m N/A 178
36
Length ILS/LOC Heading
3000 m N/A 358

NOTAMs
NOTAMs currently unavailable.
NOTAMs
NOTAMs currently unavailable

Route map
Airport
Airport (hub)